Medicine Lodge, KS

05:17 AM CST del 25 Febbraio 2017 (GMT -0600)
Medicine Lodge | | Change Station

Alt. 1535 ft 37.30 °N, 98.58 °W | Updated 21 minutes ago

Sereno
Sereno
13 °F
Sembra 7 °F
N
4
Vento Variabile Vento da ONO

Oggi
Massima -- | Minima -- °F
--% Possibilità di precip.
Ieri
Massima -- | Minima -- °F
Precip. -- in
Pressione 30.26 in
Visibilità -9999.0 miglia
Nuvole
Raffreddamento del vento 7 °F
Punto di rugiada 10 °F
Umidità 88%
Piovosità 0.00 in
Spessore del manto nevoso Non disponibile.
7:10 AM 6:24 PM
Luna calante, 2% visible
METAR KP28 251056Z AUTO 29003KT M11/M12 A3020 RMK AO1 SLP247 T11061122
Pressione 30.26 in
Visibilità -9999.0 miglia
Nuvole
Raffreddamento del vento 7 °F
Punto di rugiada 10 °F
Umidità 88%
Piovosità 0.00 in
Spessore del manto nevoso Non disponibile.
7:10 AM 6:24 PM
Luna calante, 2% visible
METAR KP28 251056Z AUTO 29003KT M11/M12 A3020 RMK AO1 SLP247 T11061122

Get Your Daily Forecast Email!

Thanks for signing up!

Be on the lookout for a verification email in your inbox.

You'll start receiving the daily forecast at 8 AM.

×

10-Day Weather Forecast

Almanac

Astronomia

Feb. 25, 2017 Alba Tramonto
Ora attuale
Crepuscolo civile
Crepuscolo nautico
Crepuscolo astronomico
Luna
Estensione della luce visibile
Lunghezza del giorno
Tomorrow will be .
, % of the Moon is Illuminated

Gli estremi di oggi

State Highs State Lows

Community

WunderPhotos

Upload Photos

1,962,540 foto caricate!

WunderBlog® & News

Nearby

Qualità dell'aria

  Qualità dell'aria Indice AQ Inquinante
Not available.

Profondità neve

Stazione Profondità Altitudine

Attività sismica

Città  Distanza Mag. Data & Ora
Minimo Magnitudo Mostrato è 2.5.

Temperature delle acque costiere

Località Temperatura

Stations

Stazioni meteo nelle vicinanze

Ubicazione della stazione Temp. Raffreddamento del vento Punto di rugiada Umidità Vento Precip. Alt. Aggiornato Tipo
                   

Watches & Warnings

There are currently no watches in effect.